| time (UTC) | temp C | wind direction | speed KPH | gust KPH | rain 1hr cm | rain 24hr cm | rain mn cm | humidity % | barometer mb |
| 20260507081545 | 14 | 215 | 0.0 | 0.0 | 0.00 | 0.00 | 0.00 | 55 | 1008.5 |
| 20260507080049 | 14 | 214 | 0.0 | 0.0 | 0.00 | 0.00 | 0.00 | 55 | 1008.3 |
| 20260507074541 | 15 | 214 | 0.0 | 0.0 | 0.00 | 0.00 | 0.00 | 54 | 1008.2 |
| 20260507073041 | 15 | 214 | 0.0 | 0.0 | 0.00 | 0.00 | 0.00 | 53 | 1008.0 |
| 20260507071534 | 15 | 213 | 0.0 | 0.0 | 0.00 | 0.00 | 0.00 | 52 | 1007.9 |
| 20260507070041 | 16 | 213 | 0.0 | 0.0 | 0.00 | 0.00 | 0.00 | 50 | 1007.8 |
| 20260507064530 | 16 | 214 | 0.0 | 0.0 | 0.00 | 0.00 | 0.00 | 49 | 1007.5 |
| 20260507063033 | 17 | 213 | 0.0 | 3.2 | 0.00 | 0.00 | 0.00 | 49 | 1007.3 |
| 20260507061529 | 17 | 339 | 0.0 | 0.0 | 0.00 | 0.00 | 0.00 | 48 | 1007.2 |
| 20260507060029 | 17 | 282 | 0.0 | 0.0 | 0.00 | 0.00 | 0.00 | 48 | 1007.2 |
| 20260507054528 | 17 | 220 | 0.0 | 0.0 | 0.00 | 0.00 | 0.00 | 48 | 1007.2 |
| 20260507053028 | 17 | 30 | 0.0 | 0.0 | 0.00 | 0.00 | 0.00 | 48 | 1007.2 |
| 20260507051527 | 18 | 307 | 0.0 | 0.0 | 0.00 | 0.00 | 0.00 | 48 | 1006.9 |
| 20260507050039 | 18 | 322 | 0.0 | 0.0 | 0.00 | 0.00 | 0.00 | 46 | 1006.9 |
| 20260507044526 | 18 | 284 | 0.0 | 0.0 | 0.00 | 0.00 | 0.00 | 45 | 1006.9 |
| 20260507043025 | 19 | 288 | 0.0 | 6.4 | 0.00 | 0.00 | 0.00 | 43 | 1007.0 |
| 20260507041525 | 20 | 299 | 0.0 | 0.0 | 0.00 | 0.00 | 0.00 | 42 | 1007.2 |
| 20260507040025 | 20 | 310 | 0.0 | 14.5 | 0.00 | 0.00 | 0.00 | 39 | 1006.9 |
| 20260507034524 | 21 | 271 | 0.0 | 0.0 | 0.00 | 0.00 | 0.00 | 38 | 1006.9 |
| 20260507033023 | 21 | 302 | 0.0 | 0.0 | 0.00 | 0.00 | 0.00 | 38 | 1006.5 |
| 20260507031522 | 21 | 277 | 0.0 | 4.8 | 0.00 | 0.00 | 0.00 | 41 | 1006.4 |
| 20260507030021 | 22 | 242 | 0.0 | 0.0 | 0.00 | 0.00 | 0.00 | 46 | 1006.5 |
| 20260507024521 | 22 | 215 | 0.0 | 6.4 | 0.00 | 0.00 | 0.00 | 45 | 1006.6 |
| 20260507023020 | 23 | 227 | 0.0 | 0.0 | 0.00 | 0.00 | 0.00 | 43 | 1006.6 |
| 20260507021528 | 23 | 223 | 0.0 | 1.6 | 0.00 | 0.00 | 0.00 | 42 | 1006.6 |
| 20260507020017 | 23 | 250 | 0.0 | 4.8 | 0.00 | 0.00 | 0.00 | 41 | 1006.8 |
| 20260507014517 | 23 | 224 | 0.0 | 0.0 | 0.00 | 0.00 | 0.00 | 40 | 1007.0 |
| 20260507013015 | 24 | 234 | 0.0 | 0.0 | 0.00 | 0.00 | 0.00 | 39 | 1007.1 |
| 20260507011518 | 24 | 238 | 0.0 | 0.0 | 0.00 | 0.00 | 0.00 | 38 | 1007.2 |
| 20260507010021 | 24 | 266 | 0.0 | 0.0 | 0.00 | 0.00 | 0.00 | 38 | 1007.3 |
| 20260507004511 | 25 | 218 | 0.0 | 0.0 | 0.00 | 0.00 | 0.00 | 37 | 1007.5 |
| 20260507003010 | 25 | 250 | 0.0 | 0.0 | 0.00 | 0.00 | 0.00 | 37 | 1007.6 |
| 20260507001509 | 25 | 220 | 0.0 | 3.2 | 0.00 | 0.00 | 0.00 | 35 | 1007.5 |
| 20260507000009 | 25 | 203 | 0.0 | 14.5 | 0.00 | 0.00 | 0.00 | 37 | 1007.5 |
| 20260506234509 | 25 | 232 | 0.0 | 4.8 | 0.00 | 0.00 | 0.00 | 35 | 1007.4 |
| 20260506233007 | 25 | 213 | 0.0 | 0.0 | 0.00 | 0.00 | 0.00 | 35 | 1007.7 |
| 20260506231506 | 25 | 223 | 0.0 | 1.6 | 0.00 | 0.00 | 0.00 | 32 | 1007.8 |
| 20260506230004 | 26 | 220 | 0.0 | 1.6 | 0.00 | 0.00 | 0.00 | 33 | 1007.8 |
| 20260506224502 | 26 | 324 | 0.0 | 3.2 | 0.00 | 0.00 | 0.00 | 34 | 1008.0 |
| 20260506223104 | 26 | 286 | 0.0 | 1.6 | 0.00 | 0.00 | 0.00 | 36 | 1008.3 |
| 20260506221604 | 26 | 12 | 0.0 | 8.0 | 0.00 | 0.00 | 0.00 | 35 | 1008.3 |
| 20260506220057 | 27 | 99 | 0.0 | 0.0 | 0.00 | 0.00 | 0.00 | 36 | 1008.5 |
| 20260506214600 | 26 | 225 | 0.0 | 6.4 | 0.00 | 0.00 | 0.00 | 35 | 1008.5 |
| 20260506213057 | 26 | 209 | 0.0 | 0.0 | 0.00 | 0.00 | 0.00 | 36 | 1008.6 |
| 20260506211553 | 25 | 275 | 0.0 | 4.8 | 0.00 | 0.00 | 0.00 | 35 | 1008.7 |
| 20260506210048 | 25 | 119 | 0.0 | 1.6 | 0.00 | 0.00 | 0.00 | 40 | 1008.9 |
| 20260506204543 | 25 | 215 | 0.0 | 1.6 | 0.00 | 0.00 | 0.00 | 39 | 1009.2 |
| 20260506203039 | 24 | 227 | 0.0 | 0.0 | 0.00 | 0.00 | 0.00 | 43 | 1009.3 |
| 20260506201538 | 23 | 355 | 0.0 | 0.0 | 0.00 | 0.00 | 0.00 | 45 | 1009.7 |
| 20260506200033 | 23 | 257 | 0.0 | 6.4 | 0.00 | 0.00 | 0.00 | 45 | 1009.7 |
| 20260506194530 | 22 | 242 | 0.0 | 0.0 | 0.00 | 0.00 | 0.00 | 45 | 1009.8 |
| 20260506193041 | 22 | 236 | 0.0 | 0.0 | 0.00 | 0.00 | 0.00 | 47 | 1009.9 |
| 20260506191526 | 22 | 220 | 0.0 | 0.0 | 0.00 | 0.00 | 0.00 | 47 | 1010.4 |
| 20260506190024 | 21 | 279 | 0.0 | 8.0 | 0.00 | 0.00 | 0.00 | 48 | 1010.5 |
| 20260506184525 | 21 | 311 | 0.0 | 0.0 | 0.00 | 0.00 | 0.00 | 49 | 1010.7 |
| 20260506183022 | 21 | 212 | 0.0 | 8.0 | 0.00 | 0.00 | 0.00 | 48 | 1010.7 |
| 20260506181535 | 21 | 261 | 0.0 | 0.0 | 0.00 | 0.00 | 0.00 | 48 | 1010.5 |
| 20260506180017 | 21 | 302 | 0.0 | 0.0 | 0.00 | 0.00 | 0.00 | 48 | 1010.7 |
| 20260506174513 | 20 | 17 | 0.0 | 0.0 | 0.00 | 0.00 | 0.00 | 49 | 1010.8 |
| 20260506173010 | 20 | 17 | 0.0 | 0.0 | 0.00 | 0.00 | 0.00 | 48 | 1011.1 |
| 20260506171514 | 19 | 197 | 0.0 | 1.6 | 0.00 | 0.00 | 0.00 | 47 | 1011.2 |
| 20260506170006 | 18 | 46 | 0.0 | 0.0 | 0.00 | 0.00 | 0.00 | 48 | 1011.4 |
| 20260506164601 | 17 | 226 | 0.0 | 0.0 | 0.00 | 0.00 | 0.00 | 49 | 1011.4 |
| 20260506163059 | 16 | 207 | 0.0 | 0.0 | 0.00 | 0.00 | 0.00 | 47 | 1011.6 |
| 20260506161552 | 16 | 218 | 0.0 | 0.0 | 0.00 | 0.00 | 0.00 | 48 | 1011.7 |
| 20260506160049 | 15 | 66 | 0.0 | 0.0 | 0.00 | 0.00 | 0.00 | 50 | 1011.6 |
| 20260506154605 | 13 | 318 | 0.0 | 0.0 | 0.00 | 0.00 | 0.00 | 59 | 1011.7 |
| 20260506153046 | 12 | 318 | 0.0 | 0.0 | 0.00 | 0.00 | 0.00 | 62 | 1011.7 |
| 20260506151544 | 12 | 58 | 0.0 | 0.0 | 0.00 | 0.00 | 0.00 | 65 | 1011.7 |
| 20260506150043 | 11 | 58 | 0.0 | 0.0 | 0.00 | 0.00 | 0.00 | 70 | 1011.8 |
| 20260506144550 | 10 | 58 | 0.0 | 0.0 | 0.00 | 0.00 | 0.00 | 72 | 1011.8 |
| 20260506143041 | 9 | 58 | 0.0 | 0.0 | 0.00 | 0.00 | 0.00 | 77 | 1011.7 |
| 20260506141540 | 8 | 58 | 0.0 | 0.0 | 0.00 | 0.00 | 0.00 | 79 | 1011.8 |
| 20260506140040 | 8 | 58 | 0.0 | 0.0 | 0.00 | 0.00 | 0.00 | 80 | 1011.8 |
| 20260506134540 | 7 | 58 | 0.0 | 0.0 | 0.00 | 0.00 | 0.00 | 82 | 1011.8 |
| 20260506133047 | 7 | 58 | 0.0 | 0.0 | 0.00 | 0.00 | 0.00 | 83 | 1011.6 |
| 20260506131535 | 7 | 58 | 0.0 | 0.0 | 0.00 | 0.00 | 0.00 | 81 | 1011.4 |
| 20260506130036 | 7 | 58 | 0.0 | 0.0 | 0.00 | 0.00 | 0.00 | 81 | 1011.4 |
| 20260506124533 | 7 | 58 | 0.0 | 0.0 | 0.00 | 0.00 | 0.00 | 80 | 1011.2 |
| 20260506123030 | 7 | 58 | 0.0 | 0.0 | 0.00 | 0.00 | 0.00 | 79 | 1011.1 |
| 20260506121527 | 8 | 58 | 0.0 | 0.0 | 0.00 | 0.00 | 0.00 | 77 | 1011.0 |
| 20260506120025 | 8 | 58 | 0.0 | 0.0 | 0.00 | 0.00 | 0.00 | 77 | 1010.9 |
| 20260506114527 | 8 | 58 | 0.0 | 0.0 | 0.00 | 0.00 | 0.00 | 76 | 1010.8 |
| 20260506113020 | 8 | 58 | 0.0 | 0.0 | 0.00 | 0.00 | 0.00 | 76 | 1010.8 |
| 20260506111518 | 8 | 58 | 0.0 | 0.0 | 0.00 | 0.00 | 0.00 | 74 | 1010.7 |
| 20260506110016 | 9 | 58 | 0.0 | 0.0 | 0.00 | 0.00 | 0.00 | 73 | 1010.7 |
| 20260506104533 | 10 | 58 | 0.0 | 0.0 | 0.00 | 0.00 | 0.00 | 71 | 1010.8 |
| 20260506103011 | 10 | 58 | 0.0 | 0.0 | 0.00 | 0.00 | 0.00 | 70 | 1010.6 |
| 20260506101510 | 10 | 58 | 0.0 | 0.0 | 0.00 | 0.00 | 0.00 | 69 | 1010.6 |
| 20260506100008 | 10 | 58 | 0.0 | 0.0 | 0.00 | 0.00 | 0.00 | 69 | 1010.6 |
| 20260506094506 | 10 | 58 | 0.0 | 0.0 | 0.00 | 0.00 | 0.00 | 68 | 1010.6 |
| 20260506093002 | 11 | 58 | 0.0 | 0.0 | 0.00 | 0.00 | 0.00 | 66 | 1010.6 |
| 20260506091502 | 11 | 58 | 0.0 | 0.0 | 0.00 | 0.00 | 0.00 | 66 | 1010.6 |
| 20260506090100 | 11 | 58 | 0.0 | 0.0 | 0.00 | 0.00 | 0.00 | 65 | 1010.5 |
| 20260506084559 | 11 | 58 | 0.0 | 0.0 | 0.00 | 0.00 | 0.00 | 65 | 1010.5 |
| 20260506083055 | 11 | 58 | 0.0 | 0.0 | 0.00 | 0.00 | 0.00 | 64 | 1010.5 |